Hauptseite
METAR-TAF:

METAR-TAF

Flughäfen :

Flughafen Arad

Arad, Rumänien

Breite: 46-12N, Länge: 021-24E, Höhe: 117 m

Beobachtung

Neuester Wetterbericht von vor 12 Minuten, um 15:30 UTC
Wind 3 kt aus West/Südwest
Temperatur 20°C
Luftfeuchtigkeit 30%
Luftdruck 1022 hPa
Sichtweite 10 km oder mehr
keine Wolken unter 1500 m und keine Kumulonimbus oder Gewitterwolken

METAR: LRAR 151530Z 24003KT CAVOK 20/02 Q1022

Zeit: 18:42 (15:42 UTC)

Prognose

Neuester Wetterbericht von vor 1 Stunde und 42 Minuten, um 14:00 UTC
Gültige Prognose vom 15 um 15 UTC bis 15 um 24 UTC
Wind 4 kt aus unterschiedlichen Richtungen
Sichtweite 10 km oder mehr
keine Wolken unter 1500 m und keine Kumulonimbus oder Gewitterwolken

TAF: LRAR 151400Z 1515/1524 VRB04KT CAVOK

Wetterbeobachtungen und Prognosen von mehr als 4000 Flughäfen (METAR und TAF Bericht).

Die verfügbaren Stationen werden durch gelbe und rote Markierungen auf der Karte dargestellt.

Führen Sie die Maus auf sie, um den Namen der Station zu sehen.

Darauf klicken, um die Beobachtung von Wetterbeobachtungen und Prognosen zu sehen.

Um die Karte zu ändern : klicken Sie auf den grünen Tasten mit einem schwarzen Kreuz Zum Vergrößern, auf den grünen Button mit einem Gedankenstrich zu verkleinern, oder auf die grünen Pfeile für benachbarte Karten.


METAR-TAF: